Location: Quaker Farms
(41.4276°N, 73.1557°W)
Time: 23:54:39
(UTC+00:00)

Vanguard 1 - Pass Details

Date: 22 June 2021
Orbit: 651 x 3832 km, 34.2° (Epoch: 26 July)

Event Time Altitude Azimuth Distance (km) Brightness Sun altitude
Rises 00:23:01 0° 224° (SW) 7,481 14.7 0.3°
Reaches altitude 10° 00:28:02 10° 219° (SW) 6,688 14.4 -0.5°
Maximum altitude 00:49:45 50° 153° (SSE) 4,328 13.0 -3.9°
Drops below altitude 10° 01:07:53 10° 85° (E) 5,730 13.5 -6.6°
Sets 01:11:43 0° 80° (E) 6,398 13.8 -7.1°
